Time,TemperatureF,DewpointF,PressureIn,WindDirection,WindDirectionDegrees,WindSpeedMPH,WindSpeedGustMPH,Humidity,HourlyPrecipIn,Conditions,Clouds,dailyrainin,SolarRadiationWatts/m^2,SoftwareType,DateUTC
2013-02-14 00:00:00,33.3,23.8,29.67,North,357,0.0,0.0,68,0.00,OVC,FEW,0.00,0.0,WeatherDisplay:10.37,2013-02-14 05:00:00,
2013-02-14 00:05:00,33.1,23.7,29.67,North,357,0.0,0.0,68,0.00,OVC,FEW,0.00,0.0,WeatherDisplay:10.37,2013-02-14 05:05:00,
2013-02-14 00:10:00,33.1,23.7,29.67,North,357,0.0,0.0,68,0.00,OVC,FEW,0.00,0.0,WeatherDisplay:10.37,2013-02-14 05:10:00,
2013-02-14 00:15:00,33.1,23.7,29.67,North,357,0.0,0.0,68,0.00,OVC,FEW,0.00,0.0,WeatherDisplay:10.37,2013-02-14 05:15:00,
2013-02-14 00:20:00,33.1,23.7,29.67,North,358,0.0,0.0,68,0.00,OVC,FEW,0.00,0.0,WeatherDisplay:10.37,2013-02-14 05:20:00,
2013-02-14 00:25:00,33.1,23.7,29.70,North,3,0.0,0.0,68,0.00,OVC,FEW,0.00,0.0,WeatherDisplay:10.37,2013-02-14 05:25:00,
2013-02-14 00:30:00,33.1,23.7,29.70,North,2,0.0,0.0,68,0.00,OVC,FEW,0.00,0.0,WeatherDisplay:10.37,2013-02-14 05:30:00,
2013-02-14 00:35:00,33.1,23.7,29.70,North,1,0.0,0.0,68,0.00,OVC,FEW,0.00,0.0,WeatherDisplay:10.37,2013-02-14 05:35:00,
2013-02-14 00:40:00,33.1,23.7,29.70,NNW,347,0.0,0.0,68,0.00,OVC,FEW,0.00,0.0,WeatherDisplay:10.37,2013-02-14 05:40:00,
2013-02-14 00:45:00,33.1,23.7,29.70,NNW,339,0.0,0.0,68,0.00,OVC,FEW,0.00,0.0,WeatherDisplay:10.37,2013-02-14 05:45:00,
2013-02-14 00:50:00,33.1,23.7,29.70,NNW,339,0.0,0.0,68,0.00,OVC,FEW,0.00,0.0,WeatherDisplay:10.37,2013-02-14 05:50:00,
2013-02-14 00:55:00,33.1,23.7,29.70,NNW,348,0.0,0.0,68,0.00,OVC,FEW,0.00,0.0,WeatherDisplay:10.37,2013-02-14 05:55:00,
2013-02-14 01:00:00,33.1,23.7,29.70,NW,321,0.0,0.0,68,0.00,OVC,FEW,0.00,0.0,WeatherDisplay:10.37,2013-02-14 06:00:00,
2013-02-14 01:05:00,33.1,23.7,29.70,NNW,344,0.0,0.0,68,0.00,OVC,FEW,0.00,0.0,WeatherDisplay:10.37,2013-02-14 06:05:00,
2013-02-14 01:10:00,33.3,23.8,29.67,NW,326,0.0,0.0,68,0.00,OVC,FEW,0.00,0.0,WeatherDisplay:10.37,2013-02-14 06:10:00,
2013-02-14 01:15:00,33.4,24.0,29.67,NNW,344,0.0,0.0,68,0.00,OVC,FEW,0.00,0.0,WeatherDisplay:10.37,2013-02-14 06:15:00,
2013-02-14 01:20:00,33.6,24.2,29.67,NNW,340,3.5,3.5,68,0.00,-SN,FEW,0.00,0.0,WeatherDisplay:10.37,2013-02-14 06:20:00,
2013-02-14 01:25:00,33.6,23.8,29.67,North,1,2.3,0.0,67,0.00,-SN,FEW,0.00,0.0,WeatherDisplay:10.37,2013-02-14 06:25:00,
2013-02-14 01:30:00,33.6,23.8,29.67,NNW,341,3.5,3.5,67,0.00,-SN,FEW,0.00,0.0,WeatherDisplay:10.37,2013-02-14 06:30:00,
2013-02-14 01:35:00,33.1,23.7,29.67,North,359,0.0,0.0,68,0.00,-SN,FEW,0.00,0.0,WeatherDisplay:10.37,2013-02-14 06:35:00,
2013-02-14 01:40:00,32.7,23.3,29.67,NW,324,0.0,0.0,68,0.00,-SN,FEW,0.00,0.0,WeatherDisplay:10.37,2013-02-14 06:40:00,
2013-02-14 01:45:00,32.4,23.0,29.67,NNW,347,0.0,0.0,68,0.00,-SN,FEW,0.00,0.0,WeatherDisplay:10.37,2013-02-14 06:45:00,
2013-02-14 01:50:00,32.2,23.1,29.67,NNW,347,0.0,0.0,69,0.00,-SN,FEW,0.00,0.0,WeatherDisplay:10.37,2013-02-14 06:50:00,
2013-02-14 01:55:00,31.8,22.8,29.70,NNW,347,0.0,0.0,69,0.00,-SN,FEW,0.00,0.0,WeatherDisplay:10.37,2013-02-14 06:55:00,
2013-02-14 02:00:00,31.6,22.6,29.70,NW,319,0.0,0.0,69,0.00,-SN,FEW,0.00,0.0,WeatherDisplay:10.37,2013-02-14 07:00:00,
2013-02-14 02:05:00,31.5,22.8,29.70,NW,319,0.0,0.0,70,0.00,-SN,FEW,0.00,0.0,WeatherDisplay:10.37,2013-02-14 07:05:00,
2013-02-14 02:10:00,31.3,22.6,29.67,NW,319,0.0,0.0,70,0.00,-SN,FEW,0.00,0.0,WeatherDisplay:10.37,2013-02-14 07:10:00,
2013-02-14 02:15:00,31.3,23.0,29.67,NW,319,0.0,0.0,71,0.00,-SN,FEW,0.00,0.0,WeatherDisplay:10.37,2013-02-14 07:15:00,
2013-02-14 02:20:00,31.3,23.0,29.67,NW,319,0.0,0.0,71,0.00,-SN,FEW,0.00,0.0,WeatherDisplay:10.37,2013-02-14 07:20:00,
2013-02-14 02:25:00,31.1,23.1,29.70,NW,319,0.0,0.0,72,0.00,-SN,FEW,0.00,0.0,WeatherDisplay:10.37,2013-02-14 07:25:00,
2013-02-14 02:30:00,31.1,23.1,29.70,NW,319,0.0,0.0,72,0.00,-SN,FEW,0.00,0.0,WeatherDisplay:10.37,2013-02-14 07:30:00,
2013-02-14 02:35:00,30.9,23.3,29.70,NW,319,0.0,0.0,73,0.00,-SN,FEW,0.00,0.0,WeatherDisplay:10.37,2013-02-14 07:35:00,
2013-02-14 02:40:00,30.7,23.1,29.70,NW,319,0.0,0.0,73,0.00,-SN,FEW,0.00,0.0,WeatherDisplay:10.37,2013-02-14 07:40:00,
2013-02-14 02:45:00,30.6,22.9,29.70,NW,319,0.0,0.0,73,0.00,-SN,FEW,0.00,0.0,WeatherDisplay:10.37,2013-02-14 07:45:00,
2013-02-14 02:50:00,30.6,23.3,29.70,NW,319,0.0,0.0,74,0.00,-SN,FEW,0.00,0.0,WeatherDisplay:10.37,2013-02-14 07:50:00,
2013-02-14 02:55:00,30.4,23.1,29.70,NW,319,0.0,0.0,74,0.00,-SN,FEW,0.00,0.0,WeatherDisplay:10.37,2013-02-14 07:55:00,
2013-02-14 03:00:00,30.4,23.4,29.70,NW,319,0.0,0.0,75,0.00,-SN,FEW,0.00,0.0,WeatherDisplay:10.37,2013-02-14 08:00:00,
2013-02-14 03:05:00,30.2,23.2,29.70,NW,319,0.0,0.0,75,0.00,-SN,FEW,0.00,0.0,WeatherDisplay:10.37,2013-02-14 08:05:00,
2013-02-14 03:10:00,30.2,23.5,29.67,NW,319,0.0,0.0,76,0.00,-SN,FEW,0.00,0.0,WeatherDisplay:10.37,2013-02-14 08:10:00,
2013-02-14 03:15:00,30.2,23.5,29.67,NW,319,0.0,0.0,76,0.00,-SN,FEW,0.00,0.0,WeatherDisplay:10.37,2013-02-14 08:15:00,
2013-02-14 03:20:00,30.0,23.4,29.67,NW,319,0.0,0.0,76,0.00,-SN,FEW,0.00,0.0,WeatherDisplay:10.37,2013-02-14 08:20:00,
2013-02-14 03:25:00,29.8,23.2,29.67,NW,319,0.0,0.0,76,0.00,-SN,FEW,0.00,0.0,WeatherDisplay:10.37,2013-02-14 08:25:00,
2013-02-14 03:30:00,29.8,23.2,29.67,NW,319,0.0,0.0,76,0.00,-SN,FEW,0.00,0.0,WeatherDisplay:10.37,2013-02-14 08:30:00,
2013-02-14 03:35:00,29.7,23.0,29.67,NW,319,0.0,0.0,76,0.00,SCT,FEW,0.00,0.0,WeatherDisplay:10.37,2013-02-14 08:35:00,
2013-02-14 03:41:00,29.7,23.3,29.70,NW,315,0.0,0.0,77,0.00,SCT,FEW,0.00,0.0,WeatherDisplay:10.37,2013-02-14 08:41:00,
2013-02-14 03:46:00,29.7,23.3,29.70,NW,311,0.0,0.0,77,0.00,SCT,FEW,0.00,0.0,WeatherDisplay:10.37,2013-02-14 08:46:00,
2013-02-14 03:51:00,29.7,23.3,29.70,NNW,331,0.0,0.0,77,0.00,BKN,FEW,0.00,0.0,WeatherDisplay:10.37,2013-02-14 08:51:00,
2013-02-14 03:56:00,29.7,23.3,29.70,NNW,328,0.0,0.0,77,0.00,BKN,FEW,0.00,0.0,WeatherDisplay:10.37,2013-02-14 08:56:00,
2013-02-14 04:01:00,29.7,23.3,29.70,North,354,0.0,0.0,77,0.00,BKN,FEW,0.00,0.0,WeatherDisplay:10.37,2013-02-14 09:01:00,
2013-02-14 04:06:00,29.7,23.3,29.70,NW,326,4.6,4.6,77,0.00,BKN,FEW,0.00,0.0,WeatherDisplay:10.37,2013-02-14 09:06:00,
2013-02-14 04:11:00,29.7,23.6,29.70,NNW,329,4.6,4.6,78,0.00,BKN,FEW,0.00,0.0,WeatherDisplay:10.37,2013-02-14 09:11:00,
2013-02-14 04:16:00,29.8,23.8,29.70,NNW,334,4.6,4.6,78,0.00,BKN,FEW,0.00,0.0,WeatherDisplay:10.37,2013-02-14 09:16:00,
2013-02-14 04:21:00,30.0,24.0,29.70,NW,310,3.5,3.6,78,0.00,BKN,FEW,0.00,0.0,WeatherDisplay:10.37,2013-02-14 09:21:00,
2013-02-14 04:26:00,30.2,24.2,29.70,NW,315,0.0,0.0,78,0.00,BKN,FEW,0.00,0.0,WeatherDisplay:10.37,2013-02-14 09:26:00,
2013-02-14 04:31:00,30.2,24.2,29.70,NW,310,3.5,3.6,78,0.00,BKN,FEW,0.00,0.0,WeatherDisplay:10.37,2013-02-14 09:31:00,
2013-02-14 04:36:00,30.2,24.2,29.70,NNW,331,3.5,3.5,78,0.00,BKN,FEW,0.00,0.0,WeatherDisplay:10.37,2013-02-14 09:36:00,
2013-02-14 04:41:00,30.2,24.2,29.73,NW,307,3.5,3.5,78,0.00,BKN,FEW,0.00,0.0,WeatherDisplay:10.37,2013-02-14 09:41:00,
2013-02-14 04:46:00,30.2,24.2,29.73,NW,320,5.8,5.8,78,0.00,BKN,FEW,0.00,0.0,WeatherDisplay:10.37,2013-02-14 09:46:00,
2013-02-14 04:51:00,30.2,24.2,29.73,NW,326,0.0,0.0,78,0.00,BKN,FEW,0.00,0.0,WeatherDisplay:10.37,2013-02-14 09:51:00,
2013-02-14 04:56:00,30.2,24.2,29.73,NW,324,3.5,3.5,78,0.00,BKN,FEW,0.00,0.0,WeatherDisplay:10.37,2013-02-14 09:56:00,
2013-02-14 05:01:00,30.4,24.0,29.73,NW,326,3.5,3.5,77,0.00,BKN,FEW,0.00,0.0,WeatherDisplay:10.37,2013-02-14 10:01:00,
2013-02-14 05:06:00,30.4,24.0,29.73,NNW,346,4.6,4.6,77,0.00,BKN,FEW,0.00,0.0,WeatherDisplay:10.37,2013-02-14 10:06:00,
2013-02-14 05:11:00,30.4,24.0,29.73,NNW,334,3.6,3.6,77,0.00,BKN,FEW,0.00,0.0,WeatherDisplay:10.37,2013-02-14 10:11:00,
2013-02-14 05:16:00,30.2,23.9,29.73,NNW,342,0.0,0.0,77,0.00,CLR,FEW,0.00,0.0,WeatherDisplay:10.37,2013-02-14 10:16:00,
2013-02-14 05:21:00,30.2,23.9,29.73,NNW,334,3.5,3.5,77,0.00,CLR,FEW,0.00,0.0,WeatherDisplay:10.37,2013-02-14 10:21:00,
2013-02-14 05:26:00,30.0,23.4,29.73,NNW,344,0.0,0.0,76,0.00,CLR,FEW,0.00,0.0,WeatherDisplay:10.37,2013-02-14 10:26:00,
2013-02-14 05:31:00,30.0,23.4,29.73,NW,317,0.0,0.0,76,0.00,CLR,FEW,0.00,0.0,WeatherDisplay:10.37,2013-02-14 10:31:00,
2013-02-14 05:36:00,29.8,23.2,29.73,NW,317,0.0,0.0,76,0.00,CLR,FEW,0.00,0.0,WeatherDisplay:10.37,2013-02-14 10:36:00,
2013-02-14 05:41:00,29.5,22.8,29.73,NW,317,0.0,0.0,76,0.00,CLR,FEW,0.00,0.0,WeatherDisplay:10.37,2013-02-14 10:41:00,
2013-02-14 05:46:00,29.3,22.4,29.73,NW,321,0.0,0.0,75,0.00,CLR,FEW,0.00,0.0,WeatherDisplay:10.37,2013-02-14 10:46:00,
2013-02-14 05:51:00,29.1,22.2,29.73,NNW,336,2.3,2.3,75,0.00,CLR,FEW,0.00,0.0,WeatherDisplay:10.37,2013-02-14 10:51:00,
2013-02-14 05:56:00,29.1,22.2,29.73,NNW,338,2.3,0.0,75,0.00,CLR,FEW,0.00,0.0,WeatherDisplay:10.37,2013-02-14 10:56:00,
2013-02-14 06:01:00,29.1,21.9,29.73,NNW,335,0.0,0.0,74,0.00,SCT,FEW,0.00,0.0,WeatherDisplay:10.37,2013-02-14 11:01:00,
2013-02-14 06:06:00,29.3,22.0,29.73,NNW,338,3.5,3.5,74,0.00,SCT,FEW,0.00,0.0,WeatherDisplay:10.37,2013-02-14 11:06:00,
2013-02-14 06:11:00,29.3,22.0,29.73,North,355,2.3,0.0,74,0.00,SCT,FEW,0.00,0.0,WeatherDisplay:10.37,2013-02-14 11:11:00,
2013-02-14 06:16:00,29.1,21.5,29.73,North,349,0.0,0.0,73,0.00,SCT,FEW,0.00,0.0,WeatherDisplay:10.37,2013-02-14 11:16:00,
2013-02-14 06:21:00,29.1,21.5,29.73,NW,309,0.0,0.0,73,0.00,SCT,FEW,0.00,0.0,WeatherDisplay:10.37,2013-02-14 11:21:00,
2013-02-14 06:26:00,29.1,21.2,29.76,NNW,335,3.5,3.5,72,0.00,SCT,FEW,0.00,0.0,WeatherDisplay:10.37,2013-02-14 11:26:00,
2013-02-14 06:31:00,29.1,21.2,29.76,NNW,332,2.3,2.3,72,0.00,SCT,FEW,0.00,0.0,WeatherDisplay:10.37,2013-02-14 11:31:00,
2013-02-14 06:36:00,29.1,21.2,29.76,NW,315,0.0,0.0,72,0.00,SCT,FEW,0.00,0.0,WeatherDisplay:10.37,2013-02-14 11:36:00,
2013-02-14 06:41:00,29.3,21.1,29.76,NNW,334,2.3,0.0,71,0.00,SCT,FEW,0.00,0.0,WeatherDisplay:10.37,2013-02-14 11:41:00,
2013-02-14 06:46:00,29.3,21.1,29.76,NW,312,0.0,0.0,71,0.00,SCT,FEW,0.00,0.0,WeatherDisplay:10.37,2013-02-14 11:46:00,
2013-02-14 06:51:00,29.3,21.1,29.76,NW,307,3.5,3.5,71,0.00,SCT,FEW,0.00,0.0,WeatherDisplay:10.37,2013-02-14 11:51:00,
2013-02-14 06:56:00,29.5,20.9,29.76,WNW,297,3.5,3.5,70,0.00,SCT,FEW,0.00,0.0,WeatherDisplay:10.37,2013-02-14 11:56:00,
2013-02-14 07:01:00,29.5,20.9,29.76,NNW,347,0.0,0.0,70,0.00,SCT,FEW,0.00,0.0,WeatherDisplay:10.37,2013-02-14 12:01:00,
2013-02-14 07:06:00,29.5,20.9,29.76,North,7,0.0,0.0,70,0.00,SCT,FEW,0.00,0.0,WeatherDisplay:10.37,2013-02-14 12:06:00,
2013-02-14 07:11:00,29.5,20.9,29.76,NW,321,5.8,0.0,70,0.00,SCT,FEW,0.00,0.0,WeatherDisplay:10.37,2013-02-14 12:11:00,
2013-02-14 07:16:00,29.5,20.9,29.76,NW,326,5.8,5.8,70,0.00,SCT,FEW,0.00,0.0,WeatherDisplay:10.37,2013-02-14 12:16:00,
2013-02-14 07:21:00,29.8,20.9,29.76,NNW,340,3.5,3.5,69,0.00,SCT,FEW,0.00,0.0,WeatherDisplay:10.37,2013-02-14 12:21:00,
2013-02-14 07:26:00,30.0,21.1,29.79,NNW,329,3.5,3.5,69,0.00,SCT,FEW,0.00,0.3,WeatherDisplay:10.37,2013-02-14 12:26:00,
2013-02-14 07:31:00,30.0,21.1,29.79,NW,322,0.0,0.0,69,0.00,SCT,FEW,0.00,0.5,WeatherDisplay:10.37,2013-02-14 12:31:00,
2013-02-14 07:36:00,30.2,21.2,29.79,North,351,0.0,0.0,69,0.00,SCT,FEW,0.00,0.7,WeatherDisplay:10.37,2013-02-14 12:36:00,
2013-02-14 07:41:00,30.2,21.2,29.79,North,353,0.0,0.0,69,0.00,SCT,FEW,0.00,0.9,WeatherDisplay:10.37,2013-02-14 12:41:00,
2013-02-14 07:46:00,30.4,21.1,29.79,NNW,347,4.6,0.0,68,0.00,SCT,FEW,0.00,1.0,WeatherDisplay:10.37,2013-02-14 12:46:00,
2013-02-14 07:51:00,30.6,21.2,29.79,NNW,339,0.0,0.0,68,0.00,SCT,FEW,0.00,1.1,WeatherDisplay:10.37,2013-02-14 12:51:00,
2013-02-14 07:56:00,30.7,21.4,29.79,NNW,336,0.0,0.0,68,0.00,SCT,FEW,0.00,1.1,WeatherDisplay:10.37,2013-02-14 12:56:00,
2013-02-14 08:01:00,31.1,21.8,29.79,West,281,4.6,4.6,68,0.00,SCT,FEW,0.00,0.9,WeatherDisplay:10.37,2013-02-14 13:01:00,
2013-02-14 08:06:00,31.6,22.3,29.79,North,349,0.0,0.0,68,0.00,SCT,FEW,0.00,0.4,WeatherDisplay:10.37,2013-02-14 13:06:00,
2013-02-14 08:11:00,32.2,22.8,29.82,NNW,335,2.3,0.0,68,0.00,SCT,FEW,0.00,0.0,WeatherDisplay:10.37,2013-02-14 13:11:00,
2013-02-14 08:16:00,32.5,23.1,29.82,NNW,342,3.5,0.0,68,0.00,SCT,FEW,0.00,0.0,WeatherDisplay:10.37,2013-02-14 13:16:00,
2013-02-14 08:21:00,32.9,23.1,29.82,NNW,348,0.0,0.0,67,0.00,SCT,FEW,0.00,0.0,WeatherDisplay:10.37,2013-02-14 13:21:00,
2013-02-14 08:26:00,33.3,23.5,29.82,NNW,338,5.8,5.8,67,0.00,SCT,FEW,0.00,0.0,WeatherDisplay:10.37,2013-02-14 13:26:00,
2013-02-14 08:31:00,33.6,23.8,29.82,North,2,3.5,0.0,67,0.00,SCT,FEW,0.00,0.0,WeatherDisplay:10.37,2013-02-14 13:31:00,
2013-02-14 08:36:00,34.0,23.8,29.82,NW,326,0.0,0.0,66,0.00,SCT,FEW,0.00,0.0,WeatherDisplay:10.37,2013-02-14 13:36:00,
2013-02-14 08:41:00,34.3,23.8,29.82,NNW,341,0.0,0.0,65,0.00,SCT,FEW,0.00,0.0,WeatherDisplay:10.37,2013-02-14 13:41:00,
2013-02-14 08:46:00,34.7,23.8,29.82,NNW,339,3.5,3.5,64,0.00,SCT,FEW,0.00,0.0,WeatherDisplay:10.37,2013-02-14 13:46:00,
2013-02-14 08:51:00,35.1,24.1,29.82,NNW,344,3.5,3.5,64,0.00,SCT,FEW,0.00,0.0,WeatherDisplay:10.37,2013-02-14 13:51:00,
2013-02-14 08:56:00,35.6,24.2,29.82,North,1,3.5,3.5,63,0.00,SCT,FEW,0.00,0.0,WeatherDisplay:10.37,2013-02-14 13:56:00,
2013-02-14 09:01:00,36.1,24.4,29.82,NNW,342,3.5,0.0,62,0.00,SCT,FEW,0.00,0.0,WeatherDisplay:10.37,2013-02-14 14:01:00,
2013-02-14 09:06:00,36.7,24.5,29.82,NNE,13,3.5,3.5,61,0.00,SCT,FEW,0.00,0.0,WeatherDisplay:10.37,2013-02-14 14:06:00,
2013-02-14 09:11:00,37.0,24.8,29.85,NNE,16,3.5,3.5,61,0.00,SCT,FEW,0.00,0.0,WeatherDisplay:10.37,2013-02-14 14:11:00,
2013-02-14 09:16:00,37.2,24.6,29.85,NNW,346,4.0,4.0,60,0.00,SCT,FEW,0.00,0.0,WeatherDisplay:10.37,2013-02-14 14:16:00,
2013-02-14 09:21:00,37.6,24.5,29.85,NNW,343,3.5,3.5,59,0.00,SCT,FEW,0.00,0.0,WeatherDisplay:10.37,2013-02-14 14:21:00,
2013-02-14 09:26:00,37.9,24.9,29.85,NNW,330,3.5,0.0,59,0.00,SCT,FEW,0.00,0.0,WeatherDisplay:10.37,2013-02-14 14:26:00,
2013-02-14 09:31:00,38.1,24.6,29.85,NNE,16,5.8,5.8,58,0.00,SCT,FEW,0.00,0.0,WeatherDisplay:10.37,2013-02-14 14:31:00,
2013-02-14 09:36:00,38.7,25.1,29.85,North,360,3.5,3.5,58,0.00,SCT,FEW,0.00,0.0,WeatherDisplay:10.37,2013-02-14 14:36:00,
2013-02-14 09:41:00,39.0,25.1,29.85,NE,42,0.0,0.0,57,0.00,SCT,FEW,0.00,0.0,WeatherDisplay:10.37,2013-02-14 14:41:00,
2013-02-14 09:46:00,39.6,25.6,29.85,North,2,0.0,0.0,57,0.00,SCT,FEW,0.00,0.0,WeatherDisplay:10.37,2013-02-14 14:46:00,
2013-02-14 09:51:00,39.7,25.3,29.85,NNE,14,5.8,5.8,56,0.00,SCT,FEW,0.00,0.0,WeatherDisplay:10.37,2013-02-14 14:51:00,
2013-02-14 09:56:00,39.9,25.5,29.85,NNE,32,3.5,3.5,56,0.00,SCT,FEW,0.00,0.0,WeatherDisplay:10.37,2013-02-14 14:56:00,
2013-02-14 10:01:00,40.3,25.8,29.85,NNW,333,3.5,3.5,56,0.00,SCT,FEW,0.00,0.0,WeatherDisplay:10.37,2013-02-14 15:01:00,
2013-02-14 10:06:00,40.5,26.0,29.85,North,356,3.5,3.5,56,0.00,SCT,FEW,0.00,0.0,WeatherDisplay:10.37,2013-02-14 15:06:00,
2013-02-14 10:11:00,40.6,25.7,29.85,NE,37,0.0,0.0,55,0.00,SCT,FEW,0.00,0.0,WeatherDisplay:10.37,2013-02-14 15:11:00,
2013-02-14 10:16:00,40.8,25.9,29.85,NNW,344,5.8,5.8,55,0.00,SCT,FEW,0.00,0.0,WeatherDisplay:10.37,2013-02-14 15:16:00,
2013-02-14 10:21:00,40.8,25.9,29.85,North,9,8.1,8.1,55,0.00,SCT,FEW,0.00,0.0,WeatherDisplay:10.37,2013-02-14 15:21:00,
2013-02-14 10:26:00,40.8,25.0,29.85,NNW,347,9.2,9.2,53,0.00,SCT,FEW,0.00,0.0,WeatherDisplay:10.37,2013-02-14 15:26:00,
2013-02-14 10:31:00,40.8,25.0,29.85,North,355,5.8,5.8,53,0.00,SCT,FEW,0.00,0.0,WeatherDisplay:10.37,2013-02-14 15:31:00,
2013-02-14 10:36:00,41.2,25.3,29.85,NE,44,3.5,3.5,53,0.00,SCT,FEW,0.00,0.0,WeatherDisplay:10.37,2013-02-14 15:36:00,
2013-02-14 10:41:00,41.5,25.7,29.85,NNE,23,5.8,5.8,53,0.00,SCT,FEW,0.00,0.0,WeatherDisplay:10.37,2013-02-14 15:41:00,
2013-02-14 10:46:00,41.5,24.3,29.85,North,352,2.3,0.0,50,0.00,SCT,FEW,0.00,0.0,WeatherDisplay:10.37,2013-02-14 15:46:00,
2013-02-14 10:51:00,41.5,24.3,29.85,NNW,336,0.0,0.0,50,0.00,SCT,FEW,0.00,0.0,WeatherDisplay:10.37,2013-02-14 15:51:00,
2013-02-14 10:56:00,41.7,24.4,29.85,NNE,17,3.5,3.5,50,0.00,SCT,FEW,0.00,0.0,WeatherDisplay:10.37,2013-02-14 15:56:00,
2013-02-14 11:01:00,41.9,24.6,29.85,North,359,3.5,3.6,50,0.00,SCT,FEW,0.00,0.0,WeatherDisplay:10.37,2013-02-14 16:01:00,
2013-02-14 11:06:00,41.9,24.6,29.85,NNW,342,5.8,5.8,50,0.00,SCT,FEW,0.00,0.0,WeatherDisplay:10.37,2013-02-14 16:06:00,
2013-02-14 11:11:00,42.1,23.8,29.88,NNW,334,3.5,3.5,48,0.00,SCT,FEW,0.00,0.0,WeatherDisplay:10.37,2013-02-14 16:11:00,
2013-02-14 11:16:00,42.1,23.8,29.88,North,351,8.1,8.1,48,0.00,SCT,FEW,0.00,0.0,WeatherDisplay:10.37,2013-02-14 16:16:00,
2013-02-14 11:21:00,42.1,23.8,29.88,NW,322,5.8,5.8,48,0.00,SCT,FEW,0.00,0.0,WeatherDisplay:10.37,2013-02-14 16:21:00,
2013-02-14 11:26:00,42.3,23.9,29.88,NW,318,5.8,5.8,48,0.00,SCT,FEW,0.00,0.0,WeatherDisplay:10.37,2013-02-14 16:26:00,
2013-02-14 11:31:00,42.4,24.1,29.88,NE,44,5.8,5.8,48,0.00,SCT,FEW,0.00,0.0,WeatherDisplay:10.37,2013-02-14 16:31:00,
2013-02-14 11:36:00,42.8,23.4,29.88,WNW,293,5.8,5.8,46,0.00,SCT,FEW,0.00,0.0,WeatherDisplay:10.37,2013-02-14 16:36:00,
2013-02-14 11:41:00,43.0,23.6,29.88,NW,313,5.8,5.8,46,0.00,SCT,FEW,0.00,0.0,WeatherDisplay:10.37,2013-02-14 16:41:00,
2013-02-14 11:46:00,43.0,23.6,29.88,North,11,4.6,4.6,46,0.00,SCT,FEW,0.00,0.0,WeatherDisplay:10.37,2013-02-14 16:46:00,
2013-02-14 11:51:00,43.3,23.9,29.88,North,355,3.5,3.5,46,0.00,SCT,FEW,0.00,0.0,WeatherDisplay:10.37,2013-02-14 16:51:00,
2013-02-14 11:56:00,43.7,24.2,29.85,NW,326,0.0,0.0,46,0.00,SCT,FEW,0.00,0.0,WeatherDisplay:10.37,2013-02-14 16:56:00,
2013-02-14 12:01:00,43.9,24.4,29.85,NNW,330,8.1,8.1,46,0.00,SCT,FEW,0.00,0.0,WeatherDisplay:10.37,2013-02-14 17:01:00,
2013-02-14 12:06:00,44.1,24.6,29.85,WSW,258,5.8,5.8,46,0.00,SCT,FEW,0.00,0.0,WeatherDisplay:10.37,2013-02-14 17:06:00,
2013-02-14 12:11:00,44.2,24.7,29.85,NW,323,8.1,8.1,46,0.00,SCT,FEW,0.00,0.0,WeatherDisplay:10.37,2013-02-14 17:11:00,
2013-02-14 12:16:00,44.2,23.7,29.85,WNW,286,0.0,0.0,44,0.00,SCT,FEW,0.00,0.0,WeatherDisplay:10.37,2013-02-14 17:16:00,
2013-02-14 12:21:00,44.6,23.5,29.85,NW,312,2.3,0.0,43,0.00,SCT,FEW,0.00,0.0,WeatherDisplay:10.37,2013-02-14 17:21:00,
2013-02-14 12:26:00,44.8,23.6,29.85,NNW,329,8.1,8.1,43,0.00,SCT,FEW,0.00,0.0,WeatherDisplay:10.37,2013-02-14 17:26:00,
2013-02-14 12:31:00,44.8,23.6,29.85,North,350,5.8,5.8,43,0.00,SCT,FEW,0.00,0.0,WeatherDisplay:10.37,2013-02-14 17:31:00,
2013-02-14 12:36:00,44.8,23.6,29.85,West,270,3.5,3.5,43,0.00,SCT,FEW,0.00,0.0,WeatherDisplay:10.37,2013-02-14 17:36:00,
2013-02-14 12:41:00,45.1,23.9,29.85,WSW,250,3.5,0.0,43,0.00,SCT,FEW,0.00,0.0,WeatherDisplay:10.37,2013-02-14 17:41:00,
2013-02-14 12:46:00,45.3,24.1,29.85,West,278,3.5,3.5,43,0.00,SCT,FEW,0.00,0.0,WeatherDisplay:10.37,2013-02-14 17:46:00,
2013-02-14 12:51:00,45.0,23.8,29.85,West,269,5.8,5.8,43,0.00,SCT,FEW,0.00,0.0,WeatherDisplay:10.37,2013-02-14 17:51:00,
2013-02-14 12:56:00,44.8,23.6,29.85,South,180,5.8,5.8,43,0.00,SCT,FEW,0.00,0.0,WeatherDisplay:10.37,2013-02-14 17:56:00,
2013-02-14 13:01:00,44.8,23.6,29.85,WSW,250,0.0,0.0,43,0.00,SCT,FEW,0.00,0.0,WeatherDisplay:10.37,2013-02-14 18:01:00,
2013-02-14 13:06:00,45.0,23.8,29.85,SSW,208,5.8,5.8,43,0.00,SCT,FEW,0.00,0.0,WeatherDisplay:10.37,2013-02-14 18:06:00,
2013-02-14 13:11:00,45.1,23.9,29.85,SW,236,0.0,0.0,43,0.00,SCT,FEW,0.00,0.0,WeatherDisplay:10.37,2013-02-14 18:11:00,
2013-02-14 13:16:00,45.3,24.1,29.85,West,264,3.5,3.5,43,0.00,SCT,FEW,0.00,0.0,WeatherDisplay:10.37,2013-02-14 18:16:00,
2013-02-14 13:21:00,45.1,23.9,29.85,SE,126,0.0,0.0,43,0.00,SCT,FEW,0.00,0.0,WeatherDisplay:10.37,2013-02-14 18:21:00,
2013-02-14 13:26:00,45.3,24.1,29.85,NNW,327,5.8,5.8,43,0.00,SCT,FEW,0.00,0.0,WeatherDisplay:10.37,2013-02-14 18:26:00,
2013-02-14 13:31:00,45.7,24.4,29.85,SW,224,3.5,3.5,43,0.00,SCT,FEW,0.00,0.0,WeatherDisplay:10.37,2013-02-14 18:31:00,
2013-02-14 13:36:00,46.0,24.8,29.85,NNW,344,3.5,3.5,43,0.00,SCT,FEW,0.00,0.0,WeatherDisplay:10.37,2013-02-14 18:36:00,
2013-02-14 13:41:00,46.2,24.9,29.85,NW,321,5.8,5.8,43,0.00,SCT,FEW,0.00,0.0,WeatherDisplay:10.37,2013-02-14 18:41:00,
2013-02-14 13:46:00,46.4,25.1,29.85,WNW,290,5.8,5.8,43,0.00,SCT,FEW,0.00,0.0,WeatherDisplay:10.37,2013-02-14 18:46:00,
2013-02-14 13:51:00,46.4,25.1,29.85,South,173,6.9,6.9,43,0.00,SCT,FEW,0.00,0.0,WeatherDisplay:10.37,2013-02-14 18:51:00,
2013-02-14 13:56:00,46.0,24.8,29.85,SSE,154,0.0,0.0,43,0.00,SCT,FEW,0.00,0.0,WeatherDisplay:10.37,2013-02-14 18:56:00,
2013-02-14 14:01:00,46.6,25.3,29.85,South,180,0.0,0.0,43,0.00,SCT,FEW,0.00,0.0,WeatherDisplay:10.37,2013-02-14 19:01:00,
2013-02-14 14:06:00,46.9,25.6,29.85,SW,217,0.0,0.0,43,0.00,SCT,FEW,0.00,0.0,WeatherDisplay:10.37,2013-02-14 19:06:00,
2013-02-14 14:11:00,47.3,25.9,29.85,West,271,5.8,5.8,43,0.00,SCT,FEW,0.00,0.0,WeatherDisplay:10.37,2013-02-14 19:11:00,
2013-02-14 14:16:00,46.8,25.4,29.85,South,173,0.0,0.0,43,0.00,SCT,FEW,0.00,0.0,WeatherDisplay:10.37,2013-02-14 19:16:00,
2013-02-14 14:21:00,46.4,22.8,29.85,WSW,238,8.1,8.1,39,0.00,SCT,FEW,0.00,0.0,WeatherDisplay:10.37,2013-02-14 19:21:00,
2013-02-14 14:26:00,46.2,23.2,29.85,WSW,253,5.8,5.8,40,0.00,SCT,FEW,0.00,0.0,WeatherDisplay:10.37,2013-02-14 19:26:00,
2013-02-14 14:31:00,46.0,23.0,29.85,West,263,4.6,4.6,40,0.00,SCT,FEW,0.00,0.0,WeatherDisplay:10.37,2013-02-14 19:31:00,
2013-02-14 14:36:00,46.2,23.2,29.85,NW,317,0.0,0.0,40,0.00,SCT,FEW,0.00,0.0,WeatherDisplay:10.37,2013-02-14 19:36:00,
2013-02-14 14:41:00,46.2,23.2,29.85,WNW,288,0.0,0.0,40,0.00,SCT,FEW,0.00,0.0,WeatherDisplay:10.37,2013-02-14 19:41:00,
2013-02-14 14:46:00,46.2,23.2,29.85,West,278,2.3,0.0,40,0.00,SCT,FEW,0.00,0.0,WeatherDisplay:10.37,2013-02-14 19:46:00,
2013-02-14 14:51:00,46.2,23.2,29.85,WSW,258,5.8,5.8,40,0.00,SCT,FEW,0.00,0.0,WeatherDisplay:10.37,2013-02-14 19:51:00,
2013-02-14 14:56:00,46.0,23.0,29.85,SW,222,0.0,0.0,40,0.00,SCT,FEW,0.00,0.0,WeatherDisplay:10.37,2013-02-14 19:56:00,
2013-02-14 15:01:00,46.0,23.0,29.85,WSW,238,3.5,3.5,40,0.00,FEW,,0.00,0.0,WeatherDisplay:10.37,2013-02-14 20:01:00,
2013-02-14 15:06:00,46.0,23.0,29.85,SW,232,3.5,3.5,40,0.00,FEW,,0.00,0.0,WeatherDisplay:10.37,2013-02-14 20:06:00,
2013-02-14 15:11:00,46.0,23.0,29.88,SSW,203,5.8,5.8,40,0.00,FEW,,0.00,0.0,WeatherDisplay:10.37,2013-02-14 20:11:00,
2013-02-14 15:16:00,46.0,23.0,29.88,North,5,0.0,0.0,40,0.00,FEW,,0.00,0.0,WeatherDisplay:10.37,2013-02-14 20:16:00,
2013-02-14 15:21:00,46.2,23.2,29.88,WSW,247,5.8,5.8,40,0.00,FEW,,0.00,0.0,WeatherDisplay:10.37,2013-02-14 20:21:00,
2013-02-14 15:26:00,46.2,23.2,29.88,WSW,252,3.6,3.6,40,0.00,FEW,,0.00,0.0,WeatherDisplay:10.37,2013-02-14 20:26:00,
2013-02-14 15:31:00,46.4,22.8,29.88,SSW,200,9.2,9.2,39,0.00,FEW,,0.00,0.0,WeatherDisplay:10.37,2013-02-14 20:31:00,
2013-02-14 15:36:00,45.9,22.9,29.88,West,279,5.8,5.8,40,0.00,FEW,,0.00,0.0,WeatherDisplay:10.37,2013-02-14 20:36:00,
2013-02-14 15:41:00,45.5,22.5,29.88,WNW,302,0.0,0.0,40,0.00,FEW,,0.00,0.0,WeatherDisplay:10.37,2013-02-14 20:41:00,
2013-02-14 15:46:00,45.5,22.5,29.88,West,280,4.6,4.6,40,0.00,FEW,,0.00,0.0,WeatherDisplay:10.37,2013-02-14 20:46:00,
2013-02-14 15:51:00,45.3,22.4,29.88,SW,225,3.5,0.0,40,0.00,FEW,,0.00,0.0,WeatherDisplay:10.37,2013-02-14 20:51:00,
2013-02-14 15:56:00,45.1,22.2,29.88,West,270,5.8,5.8,40,0.00,FEW,,0.00,0.0,WeatherDisplay:10.37,2013-02-14 20:56:00,
2013-02-14 16:01:00,45.0,22.1,29.88,South,180,3.5,3.5,40,0.00,FEW,,0.00,0.0,WeatherDisplay:10.37,2013-02-14 21:01:00,
2013-02-14 16:06:00,45.1,22.2,29.88,West,274,6.3,6.3,40,0.00,FEW,,0.00,0.0,WeatherDisplay:10.37,2013-02-14 21:06:00,
2013-02-14 16:11:00,45.1,22.2,29.88,West,266,6.9,6.9,40,0.00,FEW,,0.00,0.0,WeatherDisplay:10.37,2013-02-14 21:11:00,
2013-02-14 16:16:00,45.3,22.4,29.88,WNW,295,5.8,5.8,40,0.00,FEW,,0.00,0.0,WeatherDisplay:10.37,2013-02-14 21:16:00,
2013-02-14 16:21:00,45.5,22.5,29.88,SW,222,3.5,0.0,40,0.00,FEW,,0.00,0.0,WeatherDisplay:10.37,2013-02-14 21:21:00,
2013-02-14 16:26:00,45.5,22.5,29.88,WSW,245,5.8,5.8,40,0.00,FEW,,0.00,0.0,WeatherDisplay:10.37,2013-02-14 21:26:00,
2013-02-14 16:31:00,45.3,22.4,29.88,WSW,255,3.6,3.6,40,0.00,FEW,,0.00,0.0,WeatherDisplay:10.37,2013-02-14 21:31:00,
2013-02-14 16:36:00,45.1,22.2,29.88,West,259,3.5,0.0,40,0.00,FEW,,0.00,0.0,WeatherDisplay:10.37,2013-02-14 21:36:00,
2013-02-14 16:41:00,44.8,21.9,29.88,SW,223,3.5,3.6,40,0.00,FEW,,0.00,0.0,WeatherDisplay:10.37,2013-02-14 21:41:00,
2013-02-14 16:46:00,44.4,21.6,29.88,West,268,0.0,0.0,40,0.00,FEW,,0.00,0.0,WeatherDisplay:10.37,2013-02-14 21:46:00,
2013-02-14 16:51:00,44.1,21.3,29.88,WSW,246,4.6,4.6,40,0.00,FEW,,0.00,0.0,WeatherDisplay:10.37,2013-02-14 21:51:00,
2013-02-14 16:56:00,43.7,20.9,29.88,SSW,192,0.0,0.0,40,0.00,FEW,,0.00,0.0,WeatherDisplay:10.37,2013-02-14 21:56:00,
2013-02-14 17:01:00,43.3,20.6,29.88,SSE,157,8.1,8.1,40,0.00,FEW,,0.00,0.0,WeatherDisplay:10.37,2013-02-14 22:01:00,
2013-02-14 17:06:00,42.1,20.6,29.88,South,169,5.8,5.8,42,0.00,FEW,,0.00,0.0,WeatherDisplay:10.37,2013-02-14 22:06:00,
2013-02-14 17:11:00,41.2,20.9,29.91,SSE,148,5.8,5.8,44,0.00,FEW,,0.00,0.0,WeatherDisplay:10.37,2013-02-14 22:11:00,
2013-02-14 17:16:00,40.5,20.2,29.91,South,177,3.5,3.5,44,0.00,FEW,,0.00,0.0,WeatherDisplay:10.37,2013-02-14 22:16:00,
2013-02-14 17:21:00,39.9,19.7,29.91,South,170,5.8,5.8,44,0.00,FEW,,0.00,0.0,WeatherDisplay:10.37,2013-02-14 22:21:00,
2013-02-14 17:26:00,39.6,19.4,29.91,SSE,159,3.5,3.5,44,0.00,FEW,,0.00,0.0,WeatherDisplay:10.37,2013-02-14 22:26:00,
2013-02-14 17:31:00,39.2,19.1,29.91,SE,139,4.6,4.6,44,0.00,FEW,,0.00,0.0,WeatherDisplay:10.37,2013-02-14 22:31:00,
2013-02-14 17:36:00,38.8,20.8,29.91,SSE,157,8.1,8.1,48,0.00,FEW,,0.00,0.0,WeatherDisplay:10.37,2013-02-14 22:36:00,
2013-02-14 17:41:00,38.7,20.6,29.91,SSE,163,3.5,3.5,48,0.00,FEW,,0.00,0.0,WeatherDisplay:10.37,2013-02-14 22:41:00,
2013-02-14 17:46:00,38.5,20.5,29.91,SSE,148,0.0,0.0,48,0.00,FEW,,0.00,0.0,WeatherDisplay:10.37,2013-02-14 22:46:00,
2013-02-14 17:51:00,38.1,21.6,29.91,SE,141,4.6,4.6,51,0.00,FEW,,0.00,0.0,WeatherDisplay:10.37,2013-02-14 22:51:00,
2013-02-14 17:56:00,37.9,21.4,29.91,South,180,3.5,3.5,51,0.00,FEW,,0.00,0.0,WeatherDisplay:10.37,2013-02-14 22:56:00,
2013-02-14 18:01:00,37.8,21.2,29.91,SSE,163,3.5,0.0,51,0.00,FEW,,0.00,0.0,WeatherDisplay:10.37,2013-02-14 23:01:00,
2013-02-14 18:06:00,37.6,22.0,29.91,South,180,3.5,3.5,53,0.00,FEW,,0.00,0.0,WeatherDisplay:10.37,2013-02-14 23:06:00,
2013-02-14 18:11:00,37.4,21.8,29.94,SSE,158,3.5,3.5,53,0.00,FEW,,0.00,0.0,WeatherDisplay:10.37,2013-02-14 23:11:00,
2013-02-14 18:16:00,37.2,22.9,29.94,SE,140,3.5,3.5,56,0.00,FEW,,0.00,0.0,WeatherDisplay:10.37,2013-02-14 23:16:00,
2013-02-14 18:21:00,37.0,22.8,29.94,SSE,153,3.5,3.5,56,0.00,FEW,,0.00,0.0,WeatherDisplay:10.37,2013-02-14 23:21:00,
2013-02-14 18:26:00,36.9,22.6,29.94,SE,146,0.0,0.0,56,0.00,FEW,,0.00,0.0,WeatherDisplay:10.37,2013-02-14 23:26:00,
2013-02-14 18:31:00,36.9,23.0,29.94,SSE,153,0.0,0.0,57,0.00,FEW,,0.00,0.0,WeatherDisplay:10.37,2013-02-14 23:31:00,
2013-02-14 18:36:00,36.5,22.7,29.94,SSE,153,0.0,0.0,57,0.00,FEW,,0.00,0.0,WeatherDisplay:10.37,2013-02-14 23:36:00,
2013-02-14 18:41:00,36.3,22.5,29.94,South,183,0.0,0.0,57,0.00,FEW,,0.00,0.0,WeatherDisplay:10.37,2013-02-14 23:41:00,
2013-02-14 18:46:00,36.3,22.5,29.94,SSE,166,0.0,0.0,57,0.00,FEW,,0.00,0.0,WeatherDisplay:10.37,2013-02-14 23:46:00,
2013-02-14 18:51:00,36.1,22.4,29.94,South,177,0.0,0.0,57,0.00,FEW,,0.00,0.0,WeatherDisplay:10.37,2013-02-14 23:51:00,
2013-02-14 18:56:00,36.1,22.4,29.94,South,189,3.5,3.5,57,0.00,FEW,,0.00,0.0,WeatherDisplay:10.37,2013-02-14 23:56:00,
2013-02-14 19:01:00,36.1,22.4,29.94,SSW,199,4.0,4.0,57,0.00,CLR,FEW,0.00,0.0,WeatherDisplay:10.37,2013-02-15 00:01:00,
2013-02-14 19:06:00,36.1,22.4,29.94,SSW,205,3.5,3.5,57,0.00,CLR,FEW,0.00,0.0,WeatherDisplay:10.37,2013-02-15 00:06:00,
2013-02-14 19:11:00,36.1,22.4,29.94,SSW,211,3.5,3.5,57,0.00,CLR,FEW,0.00,0.0,WeatherDisplay:10.37,2013-02-15 00:11:00,
2013-02-14 19:16:00,36.1,22.4,29.94,SSW,198,3.5,3.5,57,0.00,CLR,FEW,0.00,0.0,WeatherDisplay:10.37,2013-02-15 00:16:00,
2013-02-14 19:21:00,36.0,22.2,29.94,SW,216,0.0,0.0,57,0.00,CLR,FEW,0.00,0.0,WeatherDisplay:10.37,2013-02-15 00:21:00,
2013-02-14 19:26:00,35.6,22.3,29.94,SW,216,0.0,0.0,58,0.00,CLR,FEW,0.00,0.0,WeatherDisplay:10.37,2013-02-15 00:26:00,
2013-02-14 19:31:00,35.4,22.1,29.94,SW,232,0.0,0.0,58,0.00,CLR,FEW,0.00,0.0,WeatherDisplay:10.37,2013-02-15 00:31:00,
2013-02-14 19:36:00,35.2,21.9,29.94,West,259,0.0,0.0,58,0.00,CLR,FEW,0.00,0.0,WeatherDisplay:10.37,2013-02-15 00:36:00,
2013-02-14 19:41:00,35.1,21.8,29.94,WSW,239,0.0,0.0,58,0.00,CLR,FEW,0.00,0.0,WeatherDisplay:10.37,2013-02-15 00:41:00,
2013-02-14 19:46:00,35.1,21.8,29.94,West,259,0.0,0.0,58,0.00,CLR,FEW,0.00,0.0,WeatherDisplay:10.37,2013-02-15 00:46:00,
2013-02-14 19:51:00,34.9,21.6,29.94,SW,215,4.6,4.6,58,0.00,CLR,FEW,0.00,0.0,WeatherDisplay:10.37,2013-02-15 00:51:00,
2013-02-14 19:56:00,34.9,21.6,29.94,SSW,203,6.3,6.3,58,0.00,CLR,FEW,0.00,0.0,WeatherDisplay:10.37,2013-02-15 00:56:00,
2013-02-14 20:01:00,35.1,21.8,29.94,South,177,2.3,0.0,58,0.00,CLR,FEW,0.00,0.0,WeatherDisplay:10.37,2013-02-15 01:01:00,
2013-02-14 20:06:00,35.2,21.9,29.94,SW,214,3.5,3.5,58,0.00,CLR,FEW,0.00,0.0,WeatherDisplay:10.37,2013-02-15 01:06:00,
2013-02-14 20:11:00,35.2,21.9,29.94,SW,216,0.0,0.0,58,0.00,CLR,FEW,0.00,0.0,WeatherDisplay:10.37,2013-02-15 01:11:00,
2013-02-14 20:16:00,35.2,21.9,29.94,South,177,0.0,0.0,58,0.00,CLR,FEW,0.00,0.0,WeatherDisplay:10.37,2013-02-15 01:16:00,
2013-02-14 20:21:00,35.2,21.9,29.94,SSW,204,3.5,0.0,58,0.00,CLR,FEW,0.00,0.0,WeatherDisplay:10.37,2013-02-15 01:21:00,
2013-02-14 20:26:00,35.1,21.8,29.94,SW,227,0.0,0.0,58,0.00,CLR,FEW,0.00,0.0,WeatherDisplay:10.37,2013-02-15 01:26:00,
2013-02-14 20:31:00,34.9,21.6,29.94,WSW,238,0.0,0.0,58,0.00,CLR,FEW,0.00,0.0,WeatherDisplay:10.37,2013-02-15 01:31:00,
2013-02-14 20:36:00,34.5,21.2,29.94,SW,236,0.0,0.0,58,0.00,CLR,FEW,0.00,0.0,WeatherDisplay:10.37,2013-02-15 01:36:00,
2013-02-14 20:41:00,34.3,21.1,29.94,SSW,210,0.0,0.0,58,0.00,CLR,FEW,0.00,0.0,WeatherDisplay:10.37,2013-02-15 01:41:00,
2013-02-14 20:46:00,34.3,21.1,29.94,West,275,0.0,0.0,58,0.00,CLR,FEW,0.00,0.0,WeatherDisplay:10.37,2013-02-15 01:46:00,
2013-02-14 20:51:00,34.2,20.9,29.94,SW,230,0.0,0.0,58,0.00,CLR,FEW,0.00,0.0,WeatherDisplay:10.37,2013-02-15 01:51:00,
2013-02-14 20:56:00,34.0,20.7,29.97,WSW,238,0.0,0.0,58,0.00,CLR,FEW,0.00,0.0,WeatherDisplay:10.37,2013-02-15 01:56:00,
2013-02-14 21:01:00,33.8,20.6,29.97,WNW,300,0.0,0.0,58,0.00,CLR,FEW,0.00,0.0,WeatherDisplay:10.37,2013-02-15 02:01:00,
2013-02-14 21:06:00,33.8,20.6,29.97,West,261,0.0,0.0,58,0.00,CLR,FEW,0.00,0.0,WeatherDisplay:10.37,2013-02-15 02:06:00,
2013-02-14 21:11:00,33.6,20.8,29.97,West,276,0.0,0.0,59,0.00,CLR,FEW,0.00,0.0,WeatherDisplay:10.37,2013-02-15 02:11:00,
2013-02-14 21:16:00,33.6,20.8,29.97,SSW,197,0.0,0.0,59,0.00,CLR,FEW,0.00,0.0,WeatherDisplay:10.37,2013-02-15 02:16:00,
2013-02-14 21:21:00,33.6,20.8,29.97,SSW,212,0.0,0.0,59,0.00,CLR,FEW,0.00,0.0,WeatherDisplay:10.37,2013-02-15 02:21:00,
2013-02-14 21:26:00,33.4,20.6,29.97,SSW,205,0.0,0.0,59,0.00,CLR,FEW,0.00,0.0,WeatherDisplay:10.37,2013-02-15 02:26:00,
2013-02-14 21:31:00,33.3,20.5,29.97,South,186,0.0,0.0,59,0.00,CLR,FEW,0.00,0.0,WeatherDisplay:10.37,2013-02-15 02:31:00,
2013-02-14 21:36:00,33.3,20.5,29.97,SSW,213,5.8,5.8,59,0.00,CLR,FEW,0.00,0.0,WeatherDisplay:10.37,2013-02-15 02:36:00,
2013-02-14 21:41:00,33.3,20.5,29.97,SSW,199,3.5,0.0,59,0.00,CLR,FEW,0.00,0.0,WeatherDisplay:10.37,2013-02-15 02:41:00,
2013-02-14 21:46:00,33.4,20.6,29.97,South,177,0.0,0.0,59,0.00,CLR,FEW,0.00,0.0,WeatherDisplay:10.37,2013-02-15 02:46:00,
2013-02-14 21:51:00,33.6,20.8,29.97,South,191,0.0,0.0,59,0.00,CLR,FEW,0.00,0.0,WeatherDisplay:10.37,2013-02-15 02:51:00,
2013-02-14 21:56:00,33.6,20.8,29.97,South,173,0.0,0.0,59,0.00,CLR,FEW,0.00,0.0,WeatherDisplay:10.37,2013-02-15 02:56:00,
2013-02-14 22:01:00,33.6,20.8,29.97,South,180,0.0,0.0,59,0.00,CLR,FEW,0.00,0.0,WeatherDisplay:10.37,2013-02-15 03:01:00,
2013-02-14 22:06:00,33.4,20.6,29.97,South,177,0.0,0.0,59,0.00,CLR,FEW,0.00,0.0,WeatherDisplay:10.37,2013-02-15 03:06:00,
2013-02-14 22:11:00,33.3,20.5,29.97,South,173,0.0,0.0,59,0.00,CLR,FEW,0.00,0.0,WeatherDisplay:10.37,2013-02-15 03:11:00,
2013-02-14 22:16:00,32.7,20.0,29.97,South,173,0.0,0.0,59,0.00,CLR,FEW,0.00,0.0,WeatherDisplay:10.37,2013-02-15 03:16:00,
2013-02-14 22:21:00,32.2,19.4,29.97,South,173,0.0,0.0,59,0.00,CLR,FEW,0.00,0.0,WeatherDisplay:10.37,2013-02-15 03:21:00,
2013-02-14 22:26:00,31.6,18.9,29.97,South,173,0.0,0.0,59,0.00,CLR,FEW,0.00,0.0,WeatherDisplay:10.37,2013-02-15 03:26:00,
2013-02-14 22:31:00,31.1,18.8,29.97,South,173,0.0,0.0,60,0.00,CLR,FEW,0.00,0.0,WeatherDisplay:10.37,2013-02-15 03:31:00,
2013-02-14 22:36:00,30.7,18.5,29.97,South,177,0.0,0.0,60,0.00,CLR,FEW,0.00,0.0,WeatherDisplay:10.37,2013-02-15 03:36:00,
2013-02-14 22:41:00,30.6,18.3,29.97,South,173,0.0,0.0,60,0.00,CLR,FEW,0.00,0.0,WeatherDisplay:10.37,2013-02-15 03:41:00,
2013-02-14 22:46:00,31.1,19.2,29.97,South,187,0.0,0.0,61,0.00,CLR,FEW,0.00,0.0,WeatherDisplay:10.37,2013-02-15 03:46:00,
2013-02-14 22:51:00,31.3,19.4,29.97,SSW,195,3.5,3.5,61,0.00,CLR,FEW,0.00,0.0,WeatherDisplay:10.37,2013-02-15 03:51:00,
2013-02-14 22:56:00,31.3,19.4,29.97,South,183,0.0,0.0,61,0.00,CLR,FEW,0.00,0.0,WeatherDisplay:10.37,2013-02-15 03:56:00,
2013-02-14 23:01:00,31.5,19.9,29.97,South,183,0.0,0.0,62,0.00,CLR,FEW,0.00,0.0,WeatherDisplay:10.37,2013-02-15 04:01:00,
2013-02-14 23:06:00,31.5,19.9,29.97,South,177,0.0,0.0,62,0.00,CLR,FEW,0.00,0.0,WeatherDisplay:10.37,2013-02-15 04:06:00,
2013-02-14 23:11:00,31.3,19.8,29.97,South,177,0.0,0.0,62,0.00,CLR,FEW,0.00,0.0,WeatherDisplay:10.37,2013-02-15 04:11:00,
2013-02-14 23:16:00,31.6,20.1,29.97,SSW,205,0.0,0.0,62,0.00,CLR,FEW,0.00,0.0,WeatherDisplay:10.37,2013-02-15 04:16:00,
2013-02-14 23:21:00,31.8,20.6,29.97,SSE,161,0.0,0.0,63,0.00,CLR,FEW,0.00,0.0,WeatherDisplay:10.37,2013-02-15 04:21:00,
2013-02-14 23:26:00,32.0,20.8,29.97,SSE,161,0.0,0.0,63,0.00,CLR,FEW,0.00,0.0,WeatherDisplay:10.37,2013-02-15 04:26:00,
2013-02-14 23:31:00,32.2,21.0,29.97,South,170,0.0,0.0,63,0.00,CLR,FEW,0.00,0.0,WeatherDisplay:10.37,2013-02-15 04:31:00,
2013-02-14 23:36:00,32.4,21.2,29.97,SE,146,0.0,0.0,63,0.00,CLR,FEW,0.00,0.0,WeatherDisplay:10.37,2013-02-15 04:36:00,
2013-02-14 23:41:00,32.4,21.2,29.97,South,180,0.0,0.0,63,0.00,CLR,FEW,0.00,0.0,WeatherDisplay:10.37,2013-02-15 04:41:00,
2013-02-14 23:46:00,32.4,21.5,29.97,SSE,161,0.0,0.0,64,0.00,CLR,FEW,0.00,0.0,WeatherDisplay:10.37,2013-02-15 04:46:00,
2013-02-14 23:51:00,32.4,21.5,29.97,SE,144,0.0,0.0,64,0.00,CLR,FEW,0.00,0.0,WeatherDisplay:10.37,2013-02-15 04:51:00,
2013-02-14 23:56:00,32.2,21.4,29.97,SE,144,0.0,0.0,64,0.00,CLR,FEW,0.00,0.0,WeatherDisplay:10.37,2013-02-15 04:56:00,